This is the latest recevied weather packets stored in our database for station/object KD5FHA. If no packets are shown the sender has not sent any weather packets the latest 10 day(s).
| Time | Temp. | Humidity | Pressure | Rain* | Wind** | Luminosity | Snow |
|---|---|---|---|---|---|---|---|
| 1777903826 | 18.89° C | 73% | 1014 hPa | 0 mm | - | 83 W/m² | - |
| 1777903522 | 18.89° C | 73% | 1014.2 hPa | 0 mm | - | 80 W/m² | - |
| 1777903219 | 18.89° C | 73% | 1014.2 hPa | 0 mm | - | 108 W/m² | - |
| 1777902915 | 18.89° C | 74% | 1014.2 hPa | 0 mm | - | 264 W/m² | - |
| 1777902612 | 18.33° C | 74% | 1014.2 hPa | 0 mm | - | 176 W/m² | - |
| 1777902309 | 18.33° C | 74% | 1014.3 hPa | 0 mm | - | 78 W/m² | - |
| 1777902006 | 17.78° C | 75% | 1014.3 hPa | 0 mm | - | 70 W/m² | - |
| 1777901705 | 17.78° C | 75% | 1014.1 hPa | 0 mm | - | 72 W/m² | - |
| 1777901401 | 17.78° C | 75% | 1014 hPa | 0 mm | - | 82 W/m² | - |
| 1777901099 | 17.78° C | 76% | 1014.2 hPa | 0 mm | - | 99 W/m² | - |
| 1777900796 | 17.78° C | 77% | 1014 hPa | 0 mm | - | 99 W/m² | - |
| 1777900494 | 17.22° C | 78% | 1014.3 hPa | 0 mm | - | 172 W/m² | - |
| 1777900190 | 17.22° C | 78% | 1014.3 hPa | 0 mm | - | 94 W/m² | - |
| 1777899887 | 16.67° C | 80% | 1014 hPa | 0 mm | - | 84 W/m² | - |
| 1777899583 | 16.67° C | 80% | 1014.2 hPa | 0 mm | - | 75 W/m² | - |
| 1777899281 | 16.11° C | 81% | 1014.3 hPa | 0 mm | - | 64 W/m² | - |
| 1777898978 | 16.11° C | 82% | 1014.2 hPa | 0 mm | - | 61 W/m² | - |
| 1777898676 | 15.56° C | 82% | 1014.1 hPa | 0 mm | - | 50 W/m² | - |
| 1777898372 | 15.56° C | 83% | 1014 hPa | 0 mm | - | 41 W/m² | - |
| 1777898071 | 15.56° C | 83% | 1014.1 hPa | 0 mm | - | 37 W/m² | - |
| 1777897766 | 15.56° C | 83% | 1013.9 hPa | 0 mm | - | 41 W/m² | - |
| 1777897462 | 15.56° C | 83% | 1013.8 hPa | 0 mm | - | 35 W/m² | - |
| 1777897159 | 15.56° C | 83% | 1013.7 hPa | 0 mm | - | 33 W/m² | - |
| 1777896855 | 15.56° C | 83% | 1013.7 hPa | 0 mm | - | 29 W/m² | - |
| 1777896553 | 15.56° C | 84% | 1013.7 hPa | 0 mm | - | 24 W/m² | - |
* Rain latest hour (hover to see other rain measurements)
** Current wind speed in m/s (hover to see current wind gust speed)